Weather History for KGRD - March, 2014

Change the Weather History Date:

Saturday, March 29, 2014

  Actual Average (KAND) Record (KAND)
Temperature  
Mean Temperature 63 °F -  
Max Temperature 75 °F 68 °F 85 °F (1989)
Min Temperature 51 °F 47 °F 28 °F (1966)
Degree Days  
Heating Degree Days 2    
Growing Degree Days 13 (Base 50)    
Moisture  
Dew Point 56 °F    
Average Humidity 84    
Maximum Humidity 94    
Minimum Humidity 53    
Precipitation  
Precipitation 0.18 in - - ()
Sea Level Pressure  
Sea Level Pressure 29.89 in    
Wind  
Wind Speed 6 mph (SSE)    
Max Wind Speed 18 mph    
Max Gust Speed 30 mph    
Visibility 7 miles    
Events Rain    
Averages and records for this station are not official NWS values.
T = Trace of Precipitation, MM = Missing Value Source: NWS Daily Summary

Daily Weather History Graph

Daily Weather History Graph

Search for Another Location

Airport or City:

Trip Planner

Search our weather history database for the weather conditions in past years. The results will help you decide how hot, cold, wet, or windy it might be!

Date:

Astronomy

Mar. 29, 2014 Rise Set
Actual Time 7:19 AM EDT 7:47 PM EDT
Civil Twilight 6:54 AM EDT 8:12 PM EDT
Nautical Twilight 6:25 AM EDT 8:42 PM EDT
Astronomical Twilight 5:55 AM EDT 9:12 PM EDT
Moon 6:24 AM EDT (3/29) 6:52 PM EDT (3/29)
Length of Visible Light 13h 17m
Length of Day
12h 27m
Waning Crescent, 2% of the Moon is Illuminated
Mar 29
Waning Crescent
Mar 30
New
Apr 7
First Quarter
Apr 15
Full
Apr 22
Last Quarter

Hourly Weather History & Observations

Time (EDT) Temp. Dew Point Humidity Pressure Visibility Wind Dir Wind Speed Gust Speed Precip Events Conditions
12:11 AM 59.0 °F 57.0 °F 93% 30.09 in 4.0 mi ENE 3.5 mph - N/A   Overcast
12:44 AM 59.0 °F 57.0 °F 93% 30.09 in 2.5 mi ENE 4.6 mph - N/A   Overcast
12:56 AM 59.0 °F 57.0 °F 93% 30.07 in 2.5 mi ENE 5.8 mph - N/A   Overcast
1:08 AM 59.0 °F 57.0 °F 93% 30.08 in 3.0 mi Variable 3.5 mph - 0.00 in Rain Light Rain
1:52 AM 59.0 °F 57.2 °F 94% 30.07 in 2.5 mi Variable 3.5 mph - 0.01 in Rain Light Rain
1:56 AM 59.0 °F 57.0 °F 93% 30.06 in 2.5 mi Calm Calm - 0.01 in Rain Light Rain
2:30 AM 59.0 °F 57.0 °F 93% 30.06 in 4.0 mi Calm Calm - 0.03 in Rain Light Rain
2:56 AM 59.0 °F 57.0 °F 93% 30.02 in 6.0 mi SE 4.6 mph - 0.04 in   Overcast
3:56 AM 59.0 °F 57.0 °F 93% 29.99 in 4.0 mi ENE 3.5 mph - 0.00 in Rain Light Rain
4:56 AM 59.0 °F 57.0 °F 93% 29.95 in 8.0 mi East 6.9 mph - 0.02 in   Overcast
5:56 AM 59.0 °F 57.0 °F 93% 29.93 in 5.0 mi East 9.2 mph - 0.00 in   Overcast
6:56 AM 59.0 °F 57.0 °F 93% 29.95 in 3.0 mi ESE 5.8 mph - 0.02 in Rain Light Rain
7:14 AM 59.0 °F 57.0 °F 93% 29.95 in 6.0 mi East 4.6 mph - 0.00 in   Overcast
7:45 AM 59.0 °F 57.0 °F 93% 29.95 in 1.8 mi East 4.6 mph - 0.02 in Rain Rain
7:56 AM 59.0 °F 57.0 °F 93% 29.94 in 1.8 mi ESE 5.8 mph - 0.03 in Rain Light Rain
7:58 AM 59.0 °F 57.0 °F 93% 29.95 in 2.0 mi ESE 5.8 mph - 0.00 in Rain Light Rain
8:10 AM 59.0 °F 57.0 °F 93% 29.95 in 4.0 mi ESE 5.8 mph - 0.01 in Rain Light Rain
8:27 AM 59.0 °F 57.0 °F 93% 29.94 in 8.0 mi ESE 4.6 mph - 0.01 in   Overcast
8:42 AM 59.0 °F 57.0 °F 93% 29.94 in 10.0 mi SE 5.8 mph - 0.01 in   Overcast
8:56 AM 60.1 °F 57.9 °F 93% 29.93 in 10.0 mi SE 4.6 mph - 0.01 in   Overcast
9:56 AM 61.0 °F 59.0 °F 93% 29.91 in 4.0 mi South 4.6 mph - N/A   Overcast
10:20 AM 63.0 °F 60.1 °F 90% 29.89 in 9.0 mi South 9.2 mph - 0.00 in   Overcast
10:49 AM 64.9 °F 61.0 °F 87% 29.84 in 10.0 mi SSE 8.1 mph - 0.00 in   Mostly Cloudy
10:56 AM 64.0 °F 60.1 °F 87% 29.83 in 10.0 mi SSE 8.1 mph - 0.00 in   Mostly Cloudy
11:32 AM 64.9 °F 60.1 °F 84% 29.80 in 10.0 mi SE 8.1 mph - N/A   Scattered Clouds
11:39 AM 64.9 °F 60.1 °F 84% 29.82 in 10.0 mi South 4.6 mph - N/A   Mostly Cloudy
11:56 AM 66.0 °F 60.1 °F 81% 29.82 in 10.0 mi SW 6.9 mph - N/A   Mostly Cloudy
12:36 PM 66.9 °F 59.0 °F 76% 29.81 in 10.0 mi SW 12.7 mph - N/A   Overcast
12:56 PM 68.0 °F 59.0 °F 73% 29.78 in 10.0 mi SW 10.4 mph - N/A   Overcast
1:56 PM 68.0 °F 57.0 °F 68% 29.77 in 10.0 mi SSW 9.2 mph - N/A   Overcast
2:56 PM 73.9 °F 55.9 °F 53% 29.72 in 10.0 mi SW 17.3 mph 25.3 mph N/A   Mostly Cloudy
3:56 PM 68.0 °F 57.9 °F 70% 29.72 in 10.0 mi West 18.4 mph 23.0 mph N/A   Overcast
4:56 PM 66.9 °F 60.1 °F 79% 29.69 in 10.0 mi WSW 12.7 mph - 0.04 in   Mostly Cloudy
5:56 PM 68.0 °F 55.0 °F 63% 29.68 in 10.0 mi WSW 13.8 mph 21.9 mph N/A   Mostly Cloudy
6:56 PM 64.0 °F 57.9 °F 80% 29.70 in 10.0 mi WSW 18.4 mph - 0.01 in   Overcast
7:56 PM 63.0 °F 57.0 °F 81% 29.71 in 10.0 mi WSW 10.4 mph 18.4 mph N/A   Mostly Cloudy
8:56 PM 62.1 °F 53.1 °F 72% 29.73 in 10.0 mi WSW 13.8 mph 23.0 mph N/A   Mostly Cloudy
9:56 PM 57.0 °F 43.0 °F 59% 29.77 in 10.0 mi West 15.0 mph 24.2 mph N/A   Mostly Cloudy
10:56 PM 53.1 °F 39.9 °F 61% 29.79 in 10.0 mi West 18.4 mph 25.3 mph N/A   Overcast
11:56 PM 51.1 °F 37.9 °F 61% 29.80 in 10.0 mi West 16.1 mph 29.9 mph N/A   Overcast